Andover, NJ

10:40 PM EST on December 13, 2019 (GMT -0500)
Andover

Weather History for K12N - September, 2019

Change the Weather History Date:

Thursday, September 26, 2019

  Actual Average (KFWN) Record (KFWN)
Temperature  
Mean Temperature 64 °F -  
Max Temperature 78 °F 68 °F 88 °F (2007)
Min Temperature 50 °F 42 °F 29 °F (1963)
Degree Days  
Heating Degree Days 1    
Growing Degree Days 14 (Base 50)    
Moisture  
Dew Point 57 °F    
Average Humidity 90    
Maximum Humidity 100    
Minimum Humidity 56    
Precipitation  
Precipitation 0.12 in - - ()
Sea Level Pressure  
Sea Level Pressure 29.84 in    
Wind  
Wind Speed 2 mph (SW)    
Max Wind Speed 7 mph    
Max Gust Speed -    
Averages and records for this station are not official NWS values.
T = Trace of Precipitation, MM = Missing Value Source: NWS Daily Summary

Daily Weather History Graph

Daily Weather History Graph

Search for Another Location

Airport or City:

Astronomy

Sep. 26, 2019 Rise Set
Actual Time 6:50 AM EDT 6:49 PM EDT
Civil Twilight 6:22 AM EDT 7:17 PM EDT
Nautical Twilight 5:50 AM EDT 7:49 PM EDT
Astronomical Twilight 5:18 AM EDT 8:21 PM EDT
Moon 3:51 AM EDT (9/26) 6:02 PM EDT (9/26)
Length of Visible Light 12h 54m
Length of Day
11h 59m
Waning Crescent, 7% of the Moon is Illuminated
Sep 26
Waning Crescent
Sep 28
New
Oct 5
First Quarter
Oct 13
Full
Oct 21
Last Quarter

Hourly Weather History & Observations

Time (EDT) Temp. Dew Point Humidity Pressure Visibility Wind Dir Wind Speed Gust Speed Precip Events Conditions
12:54 AM 52.0 °F 51.1 °F 97% 29.86 in - SSW 3.5 mph - N/A   Unknown
1:54 AM 51.1 °F 50.0 °F 96% 29.86 in - SSW 3.5 mph - N/A   Unknown
2:54 AM 51.1 °F 50.0 °F 96% 29.85 in - Calm Calm - N/A   Unknown
3:54 AM 51.1 °F 50.0 °F 96% 29.83 in - Calm Calm - N/A   Unknown
4:54 AM 51.1 °F 50.0 °F 96% 29.83 in - Calm Calm - N/A   Unknown
5:54 AM 50.0 °F 48.9 °F 96% 29.83 in - Calm Calm - N/A   Unknown
6:54 AM 50.0 °F 48.9 °F 96% 29.83 in - Calm Calm - N/A   Unknown
7:54 AM 53.1 °F 52.0 °F 96% 29.84 in - Calm Calm - N/A   Unknown
8:54 AM 61.0 °F 57.9 °F 90% 29.83 in - Calm Calm - N/A   Unknown
9:54 AM 66.0 °F 60.1 °F 81% 29.81 in - SSW 3.5 mph - N/A   Unknown
10:54 AM 71.1 °F 61.0 °F 70% 29.79 in - SSW 6.9 mph - N/A   Unknown
11:54 AM 73.9 °F 62.1 °F 66% 29.77 in - SW 6.9 mph - N/A   Unknown
12:54 PM 78.1 °F 61.0 °F 56% 29.76 in - Variable 5.8 mph - N/A   Unknown
1:54 PM 72.0 °F 61.0 °F 68% 29.79 in - Calm Calm - N/A   Unknown
2:54 PM 68.0 °F 64.0 °F 87% 29.80 in - Calm Calm - 0.03 in   Unknown
3:54 PM 66.0 °F 63.0 °F 90% 29.82 in - Variable 6.9 mph - 0.07 in   Unknown
4:54 PM 64.0 °F 62.1 °F 93% 29.82 in - NNW 4.6 mph - 0.02 in   Unknown
5:54 PM 66.0 °F 61.0 °F 84% 29.83 in - Calm Calm - N/A   Unknown
6:54 PM 61.0 °F 60.1 °F 97% 29.86 in - Calm Calm - N/A   Unknown
7:54 PM 59.0 °F 59.0 °F 100% 29.88 in - Calm Calm - N/A   Unknown
8:54 PM 59.0 °F 59.0 °F 100% 29.92 in - Calm Calm - N/A   Unknown
9:54 PM 57.9 °F 57.9 °F 100% 29.94 in - Calm Calm - N/A   Unknown
10:54 PM 57.0 °F 57.0 °F 100% 29.96 in - Calm Calm - N/A   Unknown
11:54 PM 55.9 °F 55.9 °F 100% 29.97 in - Calm Calm - N/A   Unknown